Chicago O'Hare, IL

7:29 AM CDT on September 30, 2016 (GMT -0500)
Chicago-O'Hare International

Weather History for KORD - January, 2013

Change the Weather History Date:

Wednesday, January 23, 2013

  Actual Average Record
Temperature  
Mean Temperature 17 °F 24 °F  
Max Temperature 23 °F 31 °F 65 °F (1909)
Min Temperature 10 °F 16 °F -18 °F (1963)
Degree Days  
Heating Degree Days 48 41  
Month to date heating degree days 891 951  
Since 1 July heating degree days 3028 3362  
Cooling Degree Days 0 0  
Month to date cooling degree days 0 0  
Year to date cooling degree days 0 0  
Moisture  
Dew Point 5 °F    
Average Humidity 57    
Maximum Humidity 73    
Minimum Humidity 41    
Precipitation  
Precipitation 0.01 in 0.05 in 0.89 in (1999)
Month to date precipitation 1.13 1.33  
Year to date precipitation 1.13 1.33  
Snow  
Snow 0.40 in 0.40 in 4.50 in (1897)
Month to date snowfall 0.8 7.9  
Since 1 July snowfall 1.7 17.8  
Snow Depth 0.00 in    
Sea Level Pressure  
Sea Level Pressure 30.23 in    
Wind  
Wind Speed 13 mph (West)    
Max Wind Speed 24 mph    
Max Gust Speed 35 mph    
Visibility 8 miles    
Events Snow    
T = Trace of Precipitation, MM = Missing Value Source: NWS Daily Summary

Daily Weather History Graph

Daily Weather History Graph

Search for Another Location

Airport or City:

Trip Planner

Search our weather history database for the weather conditions in past years. The results will help you decide how hot, cold, wet, or windy it might be!

Date:

Astronomy

Jan. 23, 2013 Rise Set
Actual Time 7:12 AM CST 4:55 PM CST
Civil Twilight 6:42 AM CST 5:25 PM CST
Nautical Twilight 6:08 AM CST 5:59 PM CST
Astronomical Twilight 5:34 AM CST 6:32 PM CST
Moon 2:04 PM CST (1/23) 4:24 AM CST (1/23)
Length of Visible Light 10h 43m
Length of Day
9h 43m
Waxing Gibbous, 89% of the Moon is Illuminated
Jan 23
Waxing Gibbous
Jan 26
Full
Feb 3
Last Quarter
Feb 10
New
Feb 17
First Quarter

Hourly Weather History & Observations

Time (CST) Temp. Windchill Dew Point Humidity Pressure Visibility Wind Dir Wind Speed Gust Speed Precip Events Conditions
12:51 AM 10.0 °F -0.9 °F -9.0 °F 42% 30.34 in 10.0 mi West 6.9 mph - N/A   Overcast
1:51 AM 10.0 °F -3.7 °F -9.0 °F 42% 30.33 in 10.0 mi West 10.4 mph - N/A   Overcast
2:51 AM 10.0 °F -3.7 °F -8.0 °F 44% 30.33 in 10.0 mi West 10.4 mph - N/A   Overcast
3:51 AM 10.0 °F -3.7 °F -7.1 °F 46% 30.32 in 10.0 mi West 10.4 mph - N/A   Overcast
4:51 AM 10.0 °F -4.5 °F -7.1 °F 46% 30.30 in 10.0 mi West 11.5 mph - N/A   Overcast
5:51 AM 10.9 °F -1.8 °F -6.0 °F 47% 30.29 in 10.0 mi West 9.2 mph - N/A   Overcast
6:51 AM 12.0 °F -1.3 °F -2.9 °F 51% 30.30 in 10.0 mi West 10.4 mph - N/A   Overcast
7:51 AM 13.1 °F 0.9 °F -0.9 °F 54% 30.27 in 10.0 mi West 9.2 mph - N/A Snow Light Snow
8:51 AM 14.0 °F 0.5 °F 1.0 °F 56% 30.27 in 5.0 mi WSW 11.5 mph - N/A Snow Light Snow
9:10 AM 14.0 °F 0.5 °F 1.4 °F 57% 30.23 in 4.0 mi WSW 11.5 mph - N/A Snow Light Snow
9:43 AM 15.8 °F 2.7 °F 5.0 °F 62% 30.23 in 6.0 mi WSW 11.5 mph - N/A Snow Light Snow
9:51 AM 15.1 °F 1.8 °F 6.1 °F 68% 30.27 in 8.0 mi WSW 11.5 mph - N/A   Overcast
10:51 AM 15.1 °F 1.1 °F 6.1 °F 68% 30.26 in 10.0 mi SW 12.7 mph - N/A   Overcast
11:51 AM 17.1 °F 3.0 °F 7.0 °F 65% 30.22 in 10.0 mi SW 13.8 mph - 0.00 in Snow Light Snow
12:51 PM 18.0 °F 4.2 °F 8.1 °F 65% 30.17 in 10.0 mi WSW 13.8 mph - N/A Snow Light Snow
1:51 PM 19.4 °F 6.0 °F 10.4 °F 68% 30.11 in 5.0 mi SW 13.8 mph - N/A Snow Light Snow
2:51 PM 22.1 °F 11.3 °F 14.0 °F 71% 30.09 in 4.0 mi WSW 10.4 mph - N/A Snow Light Snow
2:58 PM 21.2 °F - 14.0 °F 74% 30.17 in 5.0 mi North - - N/A Snow Light Snow
3:24 PM 23.0 °F 12.4 °F 14.0 °F 68% 30.09 in 2.0 mi West 10.4 mph - N/A Snow Light Snow
3:49 PM 19.4 °F 7.9 °F 10.4 °F 68% 30.09 in 5.0 mi West 10.4 mph - N/A Snow Light Snow
3:51 PM 19.9 °F 4.3 °F 10.0 °F 65% 30.17 in 5.0 mi WSW 19.6 mph - N/A Snow Light Snow
4:51 PM 19.9 °F 6.2 °F 9.0 °F 62% 30.17 in 10.0 mi West 15.0 mph - N/A Snow Light Snow
5:51 PM 19.9 °F 6.7 °F 8.1 °F 60% 30.17 in 8.0 mi WNW 13.8 mph 19.6 mph N/A Snow Light Snow
6:51 PM 19.0 °F 5.6 °F 7.0 °F 59% 30.19 in 10.0 mi WNW 13.8 mph - N/A   Overcast
7:51 PM 19.0 °F 8.2 °F 10.0 °F 68% 30.20 in 7.0 mi WNW 9.2 mph - N/A Snow Light Snow
8:20 PM 19.4 °F 7.2 °F 10.4 °F 68% 30.15 in 0.8 mi NW 11.5 mph - N/A Snow Light Snow
8:35 PM 19.4 °F 7.2 °F 10.4 °F 68% 30.16 in 0.8 mi NW 11.5 mph - N/A Snow Light Snow
8:51 PM 19.0 °F 2.7 °F 12.0 °F 74% 30.24 in 4.0 mi NNW 20.7 mph 33.4 mph N/A Snow Light Snow
8:58 PM 19.4 °F 4.5 °F 12.2 °F 74% 30.18 in 6.0 mi NNW 17.3 mph - N/A Snow Light Snow
9:34 PM 19.4 °F 4.1 °F 12.2 °F 74% 30.21 in 10.0 mi NNW 18.4 mph 26.5 mph N/A   Mostly Cloudy
9:51 PM 18.0 °F 0.9 °F 10.0 °F 71% 30.24 in 10.0 mi NNW 21.9 mph 26.5 mph N/A   Mostly Cloudy
10:00 PM 17.6 °F -0.3 °F 10.4 °F 73% 30.23 in 0.5 mi North 24.2 mph - N/A Snow Snow
10:12 PM 17.6 °F 1.7 °F 10.4 °F 73% 30.24 in 10.0 mi NNW 18.4 mph 34.5 mph N/A Snow Light Snow
10:51 PM 16.0 °F -1.3 °F 8.1 °F 71% 30.30 in 10.0 mi NNW 20.7 mph 25.3 mph N/A   Partly Cloudy
11:51 PM 13.1 °F -2.6 °F -0.0 °F 56% 30.34 in 10.0 mi NNW 15.0 mph 23.0 mph N/A   Clear